Regional Weather Roundup
Issued by NWS San Angelo, TX

Home | Current Version | Previous Version | Text Only | Print | Product List | Glossary On
Versions: 1 2 3 4 5 6 7 8 9 10 11 12 13 14 15 16 17 18 19 20 21 22 23 24 25 26 27 28 29 30 31 32 33 34 35 36 37 38 39 40 41 42 43 44 45 46 47 48 49 50
000
ASUS44 KSJT 050310
RWRSJT
WEST CENTRAL TEXAS REGIONAL WEATHER ROUNDUP
NATIONAL WEATHER SERVICE SAN ANGELO TX
1000 PM CDT SAT JUL 04 2015

NOTE: "FAIR" INDICATES FEW OR NO CLOUDS BELOW 12,000 FEET WITH NO
SIGNIFICANT WEATHER AND/OR OBSTRUCTIONS TO VISIBILITY.

TXZ049-054-064>066-071>073-076>078-098-099-113-114-127-128-139-140-
154-155-168>170-050400
...LOCATIONS ACROSS WEST CENTRAL TEXAS...

CITY           SKY/WX    TMP DP  RH WIND       PRES   REMARKS
SAN ANGELO     CLEAR     83  64  52 S7        29.95R
ABILENE        CLEAR     81  64  56 SE7       29.95R
DYESS AFB      CLEAR     79  66  64 S6        29.94R
JUNCTION       CLEAR     82  68  62 SE8       29.97R
SWEETWATER     CLEAR     80  62  55 S6        29.99S
BROWNWOOD      PTCLDY    82  66  57 SE6       29.96R
COLEMAN        CLEAR     81  67  62 S6        29.96R
SONORA         CLEAR     82  66  57 SE8       30.02R
OZONA          FAIR      81  63  54 S9        30.02R
BRADY          CLEAR     82  66  57 N10       29.97R
$$

TEXAS PANHANDLE/OKLAHOMA PANHANDLE

CITY           SKY/WX    TMP DP  RH WIND       PRES   REMARKS
AMARILLO       PTCLDY    78  60  53 S13       30.00R
BORGER         MOCLDY    83  64  52 S9        29.96R
CANADIAN       CLOUDY    82  68  62 S10       29.93R
DALHART        CLEAR     80  60  50 S13       30.01R
DUMAS          PTCLDY    75  62  64 S9        30.00R
GUYMON         NOT AVBL
HEREFORD       MOCLDY    78  63  60 MISG      30.03R
PAMPA          MOCLDY    77  61  56 S10       30.00R
PERRYTON       CLOUDY    80  66  62 SE9       29.95R
$$

SOUTHERN PANHANDLE/SOUTH PLAINS/ROLLING PLAINS

CITY           SKY/WX    TMP DP  RH WIND       PRES   REMARKS
LUBBOCK        MOCLDY    81  62  52 S10       30.00R
SNYDER         CLEAR     79  64  59 S7        29.98S
CHILDRESS      CLEAR     82  65  56 SE7       29.92R
SEMINOLE       CLEAR     79  59  50 SE6       30.02R
$$

PERMIAN BASIN

CITY           SKY/WX    TMP DP  RH WIND       PRES   REMARKS
MIDLAND        CLEAR     81  62  52 S8        29.99R
ODESSA         CLEAR     82  59  45 S9        30.00R
WINK           PTCLDY    84  61  45 SE9       29.95R
$$

FAR WEST/SOUTHWEST MOUNTAINS/TRANS PECOS

CITY           SKY/WX    TMP DP  RH WIND       PRES   REMARKS
ALPINE         MOCLDY    74  63  67 S6        30.13R
DRYDEN           N/A     84  66  54 VRB6      29.94R
EL PASO        TSTM      74  65  73 E13       30.02R
FORT STOCKTON  CLEAR     81  62  52 SE12      29.99R
GUADALUPE PASS CLEAR     76  57  51 E22       30.14R
MARFA          MOCLDY   N/A N/A N/A SE9       30.12R
PECOS          CLEAR     84  60  44 E13       29.95R
$$

DALLAS/FORT WORTH METROPLEX

CITY           SKY/WX    TMP DP  RH WIND       PRES   REMARKS
DFW AIRPORT    MOCLDY    86  70  58 SE8       29.93R
FTW MEACHAM    PTCLDY    88  70  55 S12       29.93R
DAL-EXECUTIVE  PTCLDY    85  71  63 S9        29.94R
GRAND PRAIRIE  PTCLDY    85  72  64 SE5       29.96R
ADDISON        MOCLDY    86  70  58 SE13G21   29.95R
MESQUITE       MOCLDY    82  71  69 SE6       29.95R
LANCASTER      MOCLDY    83  70  64 S8        29.96R
$$

NORTH CENTRAL TEXAS

CITY           SKY/WX    TMP DP  RH WIND       PRES   REMARKS
SHRMAN/DENISON MOCLDY    74  71  88 E14       29.98R
GAINESVILLE    CLEAR     79  73  81 E6        29.97R
BRIDGEPORT     MOCLDY    83  71  66 SE6       29.94R
DENTON         PTCLDY    83  71  67 SE7       29.93R
WAXAHACHIE     MOCLDY    82  72  71 SE8       29.97R
GRANBURY         N/A     87  70  56 SE9       29.94R
$$

WESTERN NORTH TEXAS

CITY           SKY/WX    TMP DP  RH WIND       PRES   REMARKS
WICHITA FALLS  MOCLDY    79  69  71 SE8       29.90R
VERNON         CLOUDY    83  63  50 SE8       29.91R
BRECKENRIDGE   CLEAR     83  65  55 SE7       29.92R
COMANCHE       CLEAR     80  68  67 S6        29.96R
$$

CENTRAL AND SOUTH CENTRAL TEXAS

CITY           SKY/WX    TMP DP  RH WIND       PRES   REMARKS
AUSTIN/BERGSTM PTCLDY    80  73  79 S9        29.96R
WACO           MOCLDY    83  72  69 S14       29.95R
HILLSBORO      MOCLDY    82  69  65 SE12      29.96R
TEMPLE         CLEAR     81  70  69 SE13      29.96R
KILLEEN-GRAY   CLEAR     79  72  77 S8        29.96R
FORT HOOD      CLEAR     82  71  69 SE10      29.96R
GEORGETOWN     CLEAR     82  70  65 S8        29.96R
LAGO VISTA     FAIR      81  72  72 SE5       30.00R
SAN MARCOS     CLEAR     79  72  78 SE8       29.98R
NEW BRAUNFELS  CLEAR     80  74  81 S8        29.96R
RANDOLPH AFB   CLEAR     80  73  78 S9        29.97R
SAN ANTONIO    PTCLDY    82  73  74 SE12      29.97R
STINSON        CLEAR     82  74  76 SE12      29.94R
PLEASANTON     NOT AVBL
LA GRANGE      CLEAR     80  76  86 S5        29.96R
GIDDINGS       CLEAR     80  73  79 S6        30.02R
$$

EAST TEXAS

CITY           SKY/WX    TMP DP  RH WIND       PRES   REMARKS
PARIS          CLOUDY    73  72  94 S12       29.95F
CLARKSVILLE    NOT AVBL
TYLER          CLOUDY    79  70  74 SE13      29.99R
LONGVIEW       CLOUDY    79  71  76 S8        30.00R
PALESTINE      MOCLDY    82  73  76 SE3       29.99R
NACOGDOCHES    CLOUDY   N/A N/A N/A SE6       30.02R
$$

TEXAS HILL COUNTRY AND EDWARDS PLATEAU

CITY           SKY/WX    TMP DP  RH WIND       PRES   REMARKS
LLANO          CLEAR     84  70  61 S8        29.99R
HORSESHOE BAY  FAIR      82  72  71 S7        29.97R
KERRVILLE      CLEAR     79  73  80 SE7       29.99R
FREDERICKSBRG  CLEAR     79  69  72 S6        30.00R
ROCKSPRINGS    CLEAR     79  70  73 SE9       30.02R
HONDO          LGT RAIN  82  73  74 SE13      29.97R
UVALDE         CLEAR     81  71  70 SE10      29.94R
DEL RIO        CLEAR     85  70  60 E10       29.88R
$$

SOUTHEAST TEXAS

CITY           SKY/WX    TMP DP  RH WIND       PRES   REMARKS
COLLEGE STN    CLEAR     81  73  76 S7        29.98R
CALDWELL       CLEAR     79  75  89 CALM      30.01R
CROCKETT       MOCLDY    81  77  89 SE6       30.03R
BRENHAM        CLEAR     82  75  81 S5        29.99R
HUNTSVILLE     PTCLDY    81  75  82 CALM      29.99R
CONROE         CLEAR     77  75  93 CALM      29.99R FOG
HOUSTON BUSH   PTCLDY    82  74  76 S5        29.99R
HOUSTON HOBBY  PTCLDY    80  77  90 CALM      29.98R
PERLAND        CLEAR     82  77  84 SE5       30.00R
WHARTON        CLEAR     78  76  94 SE5       29.99R
$$

THE UPPER TEXAS COAST

CITY           SKY/WX    TMP DP  RH WIND       PRES   REMARKS
ORANGE         CLOUDY    81  80  97 CALM      30.03R
PORT ARTHUR    CLOUDY    80  77  90 S3        30.00R
GALVESTON      PTCLDY    83  79  88 S10       30.00R
ANGLETON       CLEAR     80  77  90 S5        29.98R
BAY CITY       FAIR      80  78  93 SE3       29.98R
$$

TEXAS COASTAL BEND, RIO GRANDE PLAINS DEEP SOUTH TEXAS

CITY           SKY/WX    TMP DP  RH WIND       PRES   REMARKS
VICTORIA       CLEAR     80  77  90 S10       29.98R
BEEVILLE       FAIR      78  78 100 SE7       29.96R
ROCKPORT       PTCLDY    82  74  76 S8        29.97R
PORT ARANSAS   MOCLDY    80  76  86 S8        29.97R
PORT LAVACA    NOT AVBL
CORPUS CHRISTI PTCLDY    79  72  79 SE9       29.96R
KINGSVILLE NAS CLEAR     79  76  90 SE8       29.95R
COTULLA        LGT RAIN  84  70  62 SE18      29.92R
LAREDO         CLEAR     85  70  60 E14       29.93R
BROWNSVILLE    MOCLDY    80  73  79 SE9       29.95S
PORT ISABEL    MOCLDY    79  73  82 SE8       29.95R
HEBBRONVILLE     N/A     80  66  63 E9        29.96R
MCALLEN        CLEAR     84  71  65 SE14      29.94R
WESLACO        CLEAR     80  70  71 SE12      29.94R
FALFURRIAS     CLEAR     80  68  67 E5        29.94R
EDINBURG       CLEAR     82  71  69 SE7       29.94R
$$



USA.gov is the U.S. government's official web portal to all federal, state and local government web resources and services.